Content
SEND FEEDBACK

Daily
Averages
Monthly
Summary
United States of America

SAVERTON, MISSOURI


Home > North America > United States > Missouri
Elevation: 597 feet     Latitude: 39 37N     Longitude: 091 15W

WEATHER
 
SELECT A DAY
Number of Records: 202,769;   Date Range: 1/1/95 - 7/26/14
 
SHARE

PRINT THIS DATA

[ ← Previous Day ]
WEATHER ALMANAC - JANUARY 7, 2013
[ Next Day → ]
[ °C ]   °F
Weather ElementAverageHighLow
Temperature33.3 °F42.1 °F (1:54 pm)23 °F (2:54 am)
Dewpoint22.6 °F27 °F (3:54 pm)18 °F (1:54 am)
Humidity65.4 %81 % (2:54 am)53 % (1:54 pm)
Barometer30.23 in30.36 in (2:54 am)30.11 in (8:54 pm)
Wind Speed10.7 mph16.1 mph (12:54 pm)
Wind Gust20.7 mph (2:54 pm)
Weather ElementAverage
Visibility10 mi
Wind DirectionS (182.6 °)

Weather ElementTotal
Precipitation---
Heating Degree Days32.5 (Base 65)
Averaged from 23 records on January 7, 2013
WEATHER CONDITIONS BREAKOUT
WIND DIRECTION BREAKOUT
WEATHER BY HOUR - JANUARY 7, 2013
[ °C ]   °F
Local TimeTemperatureDewpointHumidityBarometerVisibilityWind DirectionWind SpeedGust SpeedPrecipitationEventsConditions
1:54 AM24.1 °F18.0 °F77 %30.35 in10.0 miSouth (170°)6.9 mphClear
2:54 AM23.0 °F18.0 °F81 %30.36 in10.0 miSouth (180°)8.1 mphClear
3:54 AM24.1 °F18.0 °F77 %30.35 in10.0 miSouth (180°)8.1 mphClear
4:54 AM24.1 °F18.0 °F77 %30.33 in10.0 miSSE (160°)6.9 mphClear
5:54 AM24.1 °F18.0 °F77 %30.32 in10.0 miSSE (160°)8.1 mphClear
6:54 AM25.0 °F18.0 °F75 %30.32 in10.0 miSouth (170°)10.4 mphClear
7:54 AM25.0 °F18.0 °F75 %30.32 in10.0 miSouth (170°)8.1 mphClear
8:54 AM27.0 °F19.0 °F72 %30.32 in10.0 miSouth (170°)9.2 mphClear
9:54 AM30.9 °F21.0 °F67 %30.33 in10.0 miSSW (200°)13.8 mphClear
10:54 AM34.0 °F21.9 °F61 %30.29 in10.0 miSouth (190°)12.7 mphClear
11:54 AM37.0 °F23.0 °F57 %30.24 in10.0 miSouth (190°)15.0 mphClear
12:54 PM39.2 °F24.8 °F56 %30.19 in10.0 miSSW (200°)16.1 mphClear
1:54 PM42.1 °F26.1 °F53 %30.18 in10.0 miSouth (190°)13.8 mphClear
2:54 PM42.1 °F26.1 °F53 %30.15 in10.0 miSouth (180°)16.1 mph20.7 mphClear
3:54 PM41.0 °F27.0 °F57 %30.16 in10.0 miSouth (190°)9.2 mphClear
4:54 PM39.2 °F26.6 °F61 %30.12 in10.0 miSouth (180°)9.2 mphClear
5:54 PM39.9 °F26.1 °F58 %30.13 in10.0 miSouth (180°)10.4 mphClear
6:54 PM39.0 °F26.1 °F60 %30.12 in10.0 miSouth (180°)10.4 mphClear
7:54 PM37.9 °F25.0 °F60 %30.12 in10.0 miSouth (190°)9.2 mphClear
8:54 PM39.0 °F25.0 °F57 %30.11 in10.0 miSouth (180°)11.5 mphClear
9:54 PM37.9 °F25.0 °F60 %30.12 in10.0 miSouth (190°)11.5 mphClear
10:54 PM35.1 °F25.0 °F67 %30.13 in10.0 miSSW (200°)10.4 mphClear
11:54 PM35.1 °F25.0 °F67 %30.12 in10.0 miSSW (200°)10.4 mphClear
Hourly data recorded from KUIN, located miles away from Saverton, Missouri







STORIES FROM OUR PARTNERS